Regional Weather Roundup
Issued by NWS

Home | Current Version | Previous Version | Graphics & Text | Print | Product List | Glossary On
Versions: 1 2 3 4 5 6 7 8 9 10 11 12 13 14 15 16 17 18 19 20 21 22 23 24 25 26 27 28 29 30 31 32 33 34 35 36 37 38 39 40 41 42 43 44 45 46 47 48 49 50
000
ASUS43 KFSD 010502
RWRSD

WEATHER ROUNDUP FOR SOUTH DAKOTA
NATIONAL WEATHER SERVICE SIOUX FALLS SD
1200 AM CDT TUE SEP 01 2015

NOTE: "FAIR" INDICATES FEW OR NO CLOUDS BELOW 12,000 FEET WITH NO
SIGNIFICANT WEATHER AND/OR OBSTRUCTIONS TO VISIBILITY.


SDZ001>005-009-010-012>017-010600-
NORTHWEST AND NORTH CENTRAL SOUTH DAKOTA

CITY           SKY/WX    TMP DP  RH WIND       PRES   REMARKS
BUFFALO          N/A     61  53  75 SE9       29.89S
FAITH            N/A     66  54  65 SE7       29.94F
MOBRIDGE       CLOUDY    61  56  83 E6        29.90S
$$

SDZ012>016-024>037-041>051-057-063-072>074-010600-
SOUTHWEST AND SOUTH CENTRAL SOUTH DAKOTA

CITY           SKY/WX    TMP DP  RH WIND       PRES   REMARKS
RAPID CTY ARPT MOCLDY    62  57  83 E6        29.94F
PIERRE         PTCLDY    61  59  93 NE5       29.90F
CUSTER         MOCLDY    58  51  78 NW3       30.07F
ELLSWORTH AFB  MOCLDY    65  58  77 S9        29.93F
PHILIP         CLOUDY    64  60  87 E5        29.92F
PINE RIDGE     CLOUDY    70  54  56 S10       29.95F
WINNER         FAIR      69  61  75 E6        29.93S
$$

SDZ004>011-016>023-039-040-010600-
NORTHEAST SOUTH DAKOTA

CITY           SKY/WX    TMP DP  RH WIND       PRES   REMARKS
ABERDEEN       MOCLDY    61  58  90 SW3       29.91R
WATERTOWN      MOCLDY    69  65  86 NE3       29.91S
BROOKINGS      MOCLDY    72  66  83 S6        29.93S
$$

SDZ017-020-022-023-036>040-048>070-010600-
SOUTHEAST SOUTH DAKOTA

CITY           SKY/WX    TMP DP  RH WIND       PRES   REMARKS
SIOUX FALLS    CLOUDY    75  68  78 S10       29.91R
HURON          PTCLDY    64  63  96 NW5       29.90R
CHAMBERLAIN    CLOUDY    66  64  94 CALM      29.92S
MITCHELL       PTCLDY    68  66  93 W5        29.91R
YANKTON        CLEAR     72  68  88 E5        29.89S
$$

ABBREVIATIONS USED IN REMARKS
   TC - TEMPERATURE IN CELSIUS
  WCI - WIND CHILL INDEX
   HX - HEAT INDEX
  VSB - VISIBILITY




USA.gov is the U.S. government's official web portal to all federal, state and local government web resources and services.